| time (UTC) | temp F | wind direction | speed MPH | gust MPH | rain 1hr in | rain 24hr in | rain mn in | humidity % | barometer mb |
| 20260504081504 | 58 | 0.0 | 0.0 | 0.00 | 0.00 | 0.00 | 45 | 995.1 | |
| 20260504044541 | 59 | 0.0 | 0.0 | 0.00 | 0.00 | 0.00 | 40 | 998.8 | |
| 20260504043035 | 59 | 0.0 | 0.0 | 0.00 | 0.00 | 0.00 | 41 | 999.1 | |
| 20260504041529 | 59 | 0.0 | 0.0 | 0.00 | 0.00 | 0.00 | 41 | 999.4 | |
| 20260504040029 | 59 | 0.0 | 0.0 | 0.00 | 0.00 | 0.00 | 42 | 999.7 | |
| 20260504034533 | 59 | 0.0 | 0.0 | 0.00 | 0.00 | 0.00 | 42 | 1000.0 | |
| 20260504033032 | 60 | 0.0 | 0.0 | 0.00 | 0.00 | 0.00 | 40 | 1000.2 | |
| 20260504031523 | 60 | 0.0 | 0.0 | 0.00 | 0.00 | 0.00 | 40 | 1000.3 | |
| 20260504030023 | 60 | 0.0 | 0.0 | 0.00 | 0.00 | 0.00 | 38 | 1000.5 | |
| 20260504024522 | 60 | 0.0 | 0.0 | 0.00 | 0.00 | 0.00 | 38 | 1000.7 | |
| 20260504023019 | 61 | 0.0 | 0.0 | 0.00 | 0.00 | 0.00 | 39 | 1000.7 | |
| 20260504021525 | 62 | 0.0 | 0.0 | 0.00 | 0.00 | 0.00 | 38 | 1000.7 | |
| 20260504020021 | 63 | 0.0 | 0.0 | 0.00 | 0.00 | 0.00 | 37 | 1000.7 | |
| 20260504014519 | 64 | 0.0 | 0.0 | 0.00 | 0.00 | 0.00 | 35 | 1000.9 | |
| 20260504013022 | 65 | 0.0 | 0.0 | 0.00 | 0.00 | 0.00 | 32 | 1001.0 | |
| 20260504011515 | 67 | 0.0 | 0.0 | 0.00 | 0.00 | 0.00 | 30 | 1001.1 | |
| 20260504010015 | 68 | 0.0 | 0.0 | 0.00 | 0.00 | 0.00 | 29 | 1001.0 | |
| 20260504004515 | 69 | 0.0 | 0.0 | 0.00 | 0.00 | 0.00 | 26 | 1001.2 | |
| 20260504003011 | 69 | 0.0 | 0.0 | 0.00 | 0.00 | 0.00 | 27 | 1001.1 | |
| 20260504001511 | 70 | 0.0 | 0.0 | 0.00 | 0.00 | 0.00 | 27 | 1001.2 | |
| 20260504000010 | 71 | 0.0 | 0.0 | 0.00 | 0.00 | 0.00 | 27 | 1001.3 | |
| 20260503234509 | 72 | 0.0 | 0.0 | 0.00 | 0.00 | 0.00 | 27 | 1001.2 | |
| 20260503233008 | 72 | 0.0 | 0.0 | 0.00 | 0.00 | 0.00 | 26 | 1001.2 | |
| 20260503231509 | 72 | 0.0 | 0.0 | 0.00 | 0.00 | 0.00 | 26 | 1001.7 | |
| 20260503230009 | 72 | 0.0 | 0.0 | 0.00 | 0.00 | 0.00 | 24 | 1001.7 | |
| 20260503224506 | 73 | 0.0 | 0.0 | 0.00 | 0.00 | 0.00 | 24 | 1001.8 | |
| 20260503223005 | 74 | 0.0 | 0.0 | 0.00 | 0.00 | 0.00 | 24 | 1002.0 | |
| 20260503221505 | 75 | 0.0 | 0.0 | 0.00 | 0.00 | 0.00 | 24 | 1001.9 | |
| 20260503220006 | 75 | 0.0 | 0.0 | 0.00 | 0.00 | 0.00 | 25 | 1001.9 | |
| 20260503214502 | 75 | 0.0 | 0.0 | 0.00 | 0.00 | 0.00 | 25 | 1001.9 | |
| 20260503213002 | 75 | 0.0 | 0.0 | 0.00 | 0.00 | 0.00 | 25 | 1002.1 | |
| 20260503211610 | 75 | 0.0 | 0.0 | 0.00 | 0.00 | 0.00 | 26 | 1002.1 | |
| 20260503210059 | 74 | 0.0 | 0.0 | 0.00 | 0.00 | 0.00 | 24 | 1002.3 | |
| 20260503204602 | 75 | 0.0 | 0.0 | 0.00 | 0.00 | 0.00 | 26 | 1002.5 | |
| 20260503203055 | 74 | 0.0 | 0.0 | 0.00 | 0.00 | 0.00 | 26 | 1002.6 | |
| 20260503201553 | 73 | 0.0 | 0.0 | 0.00 | 0.00 | 0.00 | 28 | 1002.8 | |
| 20260503200051 | 73 | 0.0 | 0.0 | 0.00 | 0.00 | 0.00 | 28 | 1002.9 | |
| 20260503194550 | 72 | 0.0 | 0.0 | 0.00 | 0.00 | 0.00 | 29 | 1003.2 | |
| 20260503193050 | 72 | 0.0 | 0.0 | 0.00 | 0.00 | 0.00 | 29 | 1003.2 | |
| 20260503191545 | 72 | 0.0 | 0.0 | 0.00 | 0.00 | 0.00 | 31 | 1003.3 | |
| 20260503190047 | 71 | 0.0 | 0.0 | 0.00 | 0.00 | 0.00 | 31 | 1003.3 | |
| 20260503184541 | 71 | 0.0 | 0.0 | 0.00 | 0.00 | 0.00 | 33 | 1003.3 | |
| 20260503183042 | 71 | 0.0 | 0.0 | 0.00 | 0.00 | 0.00 | 32 | 1003.5 | |
| 20260503181613 | 70 | 0.0 | 0.0 | 0.00 | 0.00 | 0.00 | 34 | 1003.5 | |
| 20260503180042 | 70 | 0.0 | 0.0 | 0.00 | 0.00 | 0.00 | 34 | 1003.7 | |
| 20260503174537 | 70 | 0.0 | 0.0 | 0.00 | 0.00 | 0.00 | 37 | 1003.8 | |
| 20260503173045 | 69 | 0.0 | 0.0 | 0.00 | 0.00 | 0.00 | 37 | 1003.9 | |
| 20260503171531 | 69 | 0.0 | 0.0 | 0.00 | 0.00 | 0.00 | 39 | 1003.9 | |
| 20260503120108 | 53 | 0.0 | 0.0 | 0.00 | 0.00 | 0.00 | 53 | 1001.9 |